Regional Weather Roundup
Issued by NWS

Home | Current Version | Previous Version | Graphics & Text | Print | Product List | Glossary On
Versions: 1 2 3 4 5 6 7 8 9 10 11 12 13 14 15 16 17 18 19 20 21 22 23 24 25 26 27 28 29 30 31 32 33 34 35 36 37 38 39 40 41 42 43 44 45 46 47 48 49 50
000
ASUS43 KIND 070959
RWRIN

WEATHER ROUNDUP FOR INDIANA
NATIONAL WEATHER SERVICE INDIANAPOLIS IN
500 AM EST WED DEC 07 2016

NOTE: "FAIR" INDICATES FEW OR NO CLOUDS BELOW 12,000 FEET WITH NO
SIGNIFICANT WEATHER AND/OR OBSTRUCTIONS TO VISIBILITY.

* - STATION DOES NOT REPORT WEATHER SUCH AS PRECIPITATION OR FOG.

+ - STATION NOT QUALITY CONTROLLED BY THE NATIONAL WEATHER SERVICE.
    USE DATA WITH CAUTION...ESPECIALLY DEWPOINT AND RELATIVE
    HUMIDITY OBSERVATIONS.

INZ001>003-010>013-019-020-071100-
NORTHWEST INDIANA

CITY           SKY/WX    TMP DP  RH WIND       PRES   REMARKS
MONTICELLO +   CLOUDY    28  17  64 W7        30.05F WCI  21
RENSSELAER +     N/A     30  25  80 W9        30.06S WCI  22

$$

LMZ046-743>745-071100-
SOUTHERN LAKE MICHIGAN

STATION/POSITION TIME  TEMP    WIND        PRES    WAVE
                       AIR SEA DIR/SP/G            HT
                 (UTC) (F)     (DEG/KT/KT) (MB)    (FT)
BURNS HARBOR     0940   31     250/ 19/ 25 1016.9S
MICHIGAN CITY    0930   31     230/ 22/ 26   N/A

$$

INZ004-005-014>016-021>024-071100-
NORTH CENTRAL INDIANA

CITY           SKY/WX    TMP DP  RH WIND       PRES   REMARKS
GOSHEN         PTCLDY    27  18  69 W12       30.01R WCI  17
SOUTH BEND     PTCLDY    25  19  78 W10       30.01S WCI  15

$$

INZ006>009-017-018-025>027-071100-
NORTHEAST INDIANA

CITY           SKY/WX    TMP DP  RH WIND       PRES   REMARKS
ANGOLA *+      CLEAR     27  21  80 W9        29.98R WCI  17
FORT WAYNE     PTCLDY    27  21  78 W12       30.05R WCI  17
KENDALLVILLE + PTCLDY    27  21  79 W13       29.99S WCI  16

$$

INZ028-029-035-036-043>045-051>053-071100-
WEST CENTRAL INDIANA

CITY           SKY/WX    TMP DP  RH WIND       PRES   REMARKS
CRAWFORDSVL +  PTCLDY    25  22  86 CALM      30.07F
GREENCASTLE +  CLEAR     27  27 100 CALM      30.09R
LAFAYETTE      CLOUDY    28  21  75 W7        30.07F WCI  21
TERRE HAUTE    CLOUDY    28  22  78 CALM      30.11S

$$

INZ030>032-037>040-046>048-054>057-064-065-071100-
CENTRAL INDIANA

CITY           SKY/WX    TMP DP  RH WIND       PRES   REMARKS
GREENWOOD *+   PTCLDY    30  24  79 CALM      30.08F
INDIANAPOLIS   PTCLDY    26  20  77 CALM      30.07F
-EAGLE CREEK   CLEAR     29  21  72 NW7       30.07F WCI  22
KOKOMO +       PTCLDY    27  22  81 W12       30.06F WCI  17
SHELBYVILLE    PTCLDY    27  20  75 NW5       30.07S WCI  22

$$

INZ033-034-041-042-049-050-058-059-071100-
EAST CENTRAL INDIANA

CITY           SKY/WX    TMP DP  RH WIND       PRES   REMARKS
MUNCIE         CLEAR     28  20  71 W6        30.06S WCI  22

$$

INZ060-061-067>069-081>083-085>088-071100-
SOUTHWEST INDIANA

CITY           SKY/WX    TMP DP  RH WIND       PRES   REMARKS
EVANSVILLE     CLOUDY    35  26  69 N7        30.15R WCI  29
HUNTINGBURG *+ MOCLDY    34  28  80 NW6       30.13F WCI  29

$$

INZ062-063-066-070>080-084-089>092-071100-
SOUTH CENTRAL AND SOUTHEAST INDIANA

CITY           SKY/WX    TMP DP  RH WIND       PRES   REMARKS
BLOOMINGTON    PTCLDY    27  23  85 CALM      30.10F
MADISON *+     PTCLDY    32  30  93 CALM      30.13R

$$





USA.gov is the U.S. government's official web portal to all federal, state and local government web resources and services.